sat.trackr.live / text

‹ back to catalog

KUIPER-00154

NORAD 65969 · 2025-228Y

PAYLOAD ACTIVE UNKNOWN

§ Identity

Operator
Country
US
Launch date
2025-10-14
Launch site
AFETR
Launch vehicle
Mass (kg)
RCS (m²)

External: N2YO · Heavens-Above · Gunter

§ Orbital elements

Epoch: 2026-05-24T23:07:27.482592Z

Period
97.30 min
Inclination
51.9017°
Eccentricity
0.0000724
Mean motion
14.79932476 rev/d
Perigee alt
629.0 km
Apogee alt
630.0 km
Semi-major
7,007.7 km
B*
-3.1669e-5
RAAN
358.3236°
Arg perigee
107.8815°
Mean anomaly
252.2226°
Rev number
3,487

§ Raw data

KUIPER-001541 65969U 25228Y   26144.96351253 -.00000463  00000+0 -31669-4 0  99982 65969  51.9017 358.3236 0000724 107.8815 252.2226 14.79932476 34878

JSON: /api/v1/satellites/65969 · /tle

For live sub-satellite position, see the globe view (requires WebGL).

§ Visibility from observer

Set your observer location to see the next 7 days of passes ≥ 10°. The values pass through the URL so the page stays shareable.

No JS? Fill the form by hand. The geolocation button needs JavaScript.